| time (UTC) | temp F | wind direction | speed MPH | gust MPH | rain 1hr in | rain 24hr in | rain mn in | humidity % | barometer mb |
| 20260507020020 | 57 | 15 | 3.0 | 7.0 | 0.00 | 0.39 | 0.39 | 82 | 1010.4 |
| 20260507014524 | 58 | 349 | 2.0 | 11.0 | 0.00 | 0.39 | 0.39 | 82 | 1010.4 |
| 20260507013028 | 59 | 330 | 1.0 | 4.0 | 0.00 | 0.39 | 0.39 | 84 | 1010.3 |
| 20260507011534 | 59 | 303 | 2.0 | 5.0 | 0.00 | 0.39 | 0.39 | 84 | 1010.2 |
| 20260507010020 | 59 | 282 | 2.0 | 5.0 | 0.00 | 0.39 | 0.39 | 84 | 1010.0 |
| 20260507004522 | 59 | 285 | 1.0 | 3.0 | 0.00 | 0.39 | 0.39 | 85 | 1009.7 |
| 20260507003004 | 59 | 279 | 2.0 | 6.0 | 0.01 | 0.39 | 0.39 | 84 | 1009.5 |
| 20260507001508 | 60 | 305 | 3.0 | 7.0 | 0.08 | 0.39 | 0.39 | 84 | 1009.2 |
| 20260507000012 | 61 | 294 | 1.0 | 5.0 | 0.08 | 0.39 | 0.39 | 87 | 1008.8 |
| 20260506234520 | 61 | 309 | 1.0 | 3.0 | 0.08 | 0.39 | 0.39 | 87 | 1008.5 |
| 20260506233010 | 63 | 293 | 3.0 | 4.0 | 0.07 | 0.38 | 0.38 | 87 | 1008.4 |
| 20260506231506 | 64 | 238 | 2.0 | 4.0 | 0.00 | 0.31 | 0.31 | 86 | 1008.0 |
| 20260506230019 | 64 | 246 | 4.0 | 8.0 | 0.00 | 0.31 | 0.31 | 85 | 1008.0 |
| 20260506224518 | 64 | 277 | 4.0 | 7.0 | 0.00 | 0.31 | 0.31 | 85 | 1007.7 |
| 20260506223023 | 65 | 183 | 1.0 | 8.0 | 0.00 | 0.31 | 0.31 | 83 | 1007.6 |
| 20260506221504 | 65 | 221 | 4.0 | 6.0 | 0.00 | 0.31 | 0.31 | 81 | 1007.7 |
| 20260506220016 | 66 | 229 | 3.0 | 9.0 | 0.00 | 0.31 | 0.31 | 80 | 1007.5 |
| 20260506214519 | 66 | 232 | 3.0 | 8.0 | 0.00 | 0.31 | 0.31 | 80 | 1007.3 |
| 20260506213018 | 66 | 293 | 2.0 | 6.0 | 0.00 | 0.31 | 0.31 | 80 | 1007.2 |
| 20260506211530 | 66 | 221 | 2.0 | 11.0 | 0.00 | 0.31 | 0.31 | 80 | 1007.3 |
| 20260506210005 | 66 | 264 | 2.0 | 10.0 | 0.00 | 0.31 | 0.31 | 79 | 1007.0 |
| 20260506204516 | 66 | 257 | 4.0 | 9.0 | 0.00 | 0.31 | 0.31 | 80 | 1006.9 |
| 20260506203019 | 67 | 235 | 3.0 | 9.0 | 0.00 | 0.31 | 0.31 | 78 | 1006.9 |
| 20260506201536 | 66 | 243 | 4.0 | 7.0 | 0.00 | 0.31 | 0.31 | 80 | 1006.9 |
| 20260506200007 | 65 | 244 | 3.0 | 11.0 | 0.00 | 0.31 | 0.31 | 82 | 1007.0 |
| 20260506194512 | 64 | 240 | 6.0 | 12.0 | 0.00 | 0.31 | 0.31 | 81 | 1007.1 |
| 20260506193024 | 64 | 203 | 5.0 | 10.0 | 0.00 | 0.31 | 0.31 | 82 | 1007.2 |
| 20260506191524 | 64 | 270 | 7.0 | 11.0 | 0.00 | 0.31 | 0.31 | 82 | 1007.1 |
| 20260506190030 | 64 | 245 | 2.0 | 11.0 | 0.00 | 0.31 | 0.31 | 84 | 1007.1 |
| 20260506184518 | 63 | 252 | 5.0 | 13.0 | 0.00 | 0.31 | 0.31 | 84 | 1007.4 |
| 20260506183016 | 62 | 296 | 5.0 | 14.0 | 0.00 | 0.31 | 0.31 | 85 | 1007.6 |
| 20260506181522 | 62 | 221 | 4.0 | 10.0 | 0.00 | 0.31 | 0.31 | 86 | 1007.7 |
| 20260506180031 | 62 | 214 | 4.0 | 9.0 | 0.00 | 0.31 | 0.31 | 87 | 1007.8 |
| 20260506174530 | 62 | 276 | 4.0 | 13.0 | 0.00 | 0.31 | 0.31 | 86 | 1007.7 |
| 20260506173014 | 62 | 246 | 6.0 | 10.0 | 0.00 | 0.31 | 0.31 | 86 | 1007.6 |
| 20260506171530 | 61 | 203 | 5.0 | 10.0 | 0.00 | 0.31 | 0.31 | 87 | 1007.7 |
| 20260506170024 | 61 | 255 | 3.0 | 9.0 | 0.00 | 0.31 | 0.31 | 87 | 1007.7 |
| 20260506164529 | 61 | 217 | 6.0 | 12.0 | 0.00 | 0.31 | 0.31 | 87 | 1007.8 |
| 20260506163034 | 61 | 245 | 4.0 | 16.0 | 0.02 | 0.31 | 0.31 | 88 | 1007.7 |
| 20260506161517 | 61 | 247 | 5.0 | 12.0 | 0.04 | 0.31 | 0.31 | 88 | 1008.0 |
| 20260506160020 | 61 | 252 | 5.0 | 14.0 | 0.08 | 0.31 | 0.31 | 88 | 1007.9 |
| 20260506154529 | 61 | 183 | 5.0 | 13.0 | 0.13 | 0.31 | 0.31 | 89 | 1007.6 |
| 20260506153026 | 60 | 176 | 2.0 | 13.0 | 0.14 | 0.29 | 0.29 | 89 | 1007.5 |
| 20260506151521 | 60 | 207 | 1.0 | 8.0 | 0.14 | 0.27 | 0.27 | 89 | 1008.1 |
| 20260506150020 | 60 | 195 | 4.0 | 10.0 | 0.11 | 0.23 | 0.23 | 88 | 1008.6 |
| 20260506144524 | 60 | 191 | 4.0 | 12.0 | 0.10 | 0.18 | 0.18 | 88 | 1009.1 |
| 20260506143028 | 61 | 207 | 6.0 | 9.0 | 0.09 | 0.15 | 0.15 | 86 | 1008.7 |
| 20260506141527 | 61 | 214 | 2.0 | 8.0 | 0.07 | 0.13 | 0.13 | 86 | 1008.2 |
| 20260506140025 | 61 | 207 | 2.0 | 6.0 | 0.07 | 0.12 | 0.12 | 85 | 1008.2 |
| 20260506134530 | 61 | 188 | 0.0 | 2.0 | 0.04 | 0.08 | 0.08 | 84 | 1008.4 |
| 20260506133030 | 61 | 232 | 1.0 | 5.0 | 0.03 | 0.06 | 0.06 | 84 | 1008.6 |
| 20260506131527 | 61 | 241 | 1.0 | 5.0 | 0.04 | 0.06 | 0.06 | 83 | 1008.5 |
| 20260506130018 | 61 | 174 | 1.0 | 4.0 | 0.04 | 0.05 | 0.05 | 84 | 1008.6 |
| 20260506124522 | 61 | 233 | 0.0 | 2.0 | 0.03 | 0.04 | 0.04 | 82 | 1008.8 |
| 20260506123006 | 62 | 231 | 1.0 | 4.0 | 0.03 | 0.03 | 0.03 | 79 | 1009.0 |
| 20260506121508 | 62 | 266 | 1.0 | 3.0 | 0.02 | 0.02 | 0.02 | 78 | 1009.1 |
| 20260506120018 | 62 | 248 | 0.0 | 4.0 | 0.01 | 0.01 | 0.01 | 76 | 1008.7 |
| 20260506114533 | 63 | 253 | 1.0 | 3.0 | 0.01 | 0.01 | 0.01 | 74 | 1008.5 |
| 20260506113004 | 64 | 187 | 0.0 | 6.0 | 0.00 | 0.00 | 0.00 | 69 | 1008.3 |
| 20260506111508 | 65 | 258 | 4.0 | 8.0 | 0.00 | 0.00 | 0.00 | 65 | 1008.3 |
| 20260506110010 | 65 | 197 | 3.0 | 11.0 | 0.00 | 0.00 | 0.00 | 65 | 1007.9 |
| 20260506104516 | 65 | 207 | 6.0 | 13.0 | 0.00 | 0.00 | 0.00 | 64 | 1007.9 |
| 20260506103022 | 66 | 211 | 3.0 | 11.0 | 0.00 | 0.00 | 0.00 | 63 | 1007.6 |
| 20260506101503 | 66 | 269 | 4.0 | 10.0 | 0.00 | 0.00 | 0.00 | 63 | 1007.4 |
| 20260506100020 | 65 | 240 | 2.0 | 6.0 | 0.00 | 0.00 | 0.00 | 63 | 1007.5 |
| 20260506094516 | 66 | 164 | 2.0 | 6.0 | 0.00 | 0.00 | 0.00 | 62 | 1007.5 |
| 20260506093018 | 66 | 288 | 1.0 | 8.0 | 0.00 | 0.00 | 0.00 | 62 | 1007.6 |
| 20260506091524 | 66 | 258 | 1.0 | 5.0 | 0.00 | 0.00 | 0.00 | 60 | 1007.7 |
| 20260506090009 | 67 | 223 | 4.0 | 7.0 | 0.00 | 0.00 | 0.00 | 58 | 1007.8 |
| 20260506084512 | 67 | 240 | 3.0 | 9.0 | 0.00 | 0.00 | 0.00 | 57 | 1007.6 |
| 20260506083018 | 68 | 235 | 2.0 | 10.0 | 0.00 | 0.00 | 0.00 | 56 | 1007.7 |
| 20260506081521 | 68 | 210 | 5.0 | 11.0 | 0.00 | 0.00 | 0.00 | 55 | 1007.7 |
| 20260506073014 | 68 | 264 | 3.0 | 10.0 | 0.00 | 0.00 | 0.00 | 54 | 1007.9 |
| 20260506071522 | 68 | 236 | 4.0 | 13.0 | 0.00 | 0.00 | 0.00 | 53 | 1008.0 |
| 20260506061518 | 68 | 191 | 3.0 | 10.0 | 0.00 | 0.00 | 0.00 | 52 | 1008.6 |
| 20260506044533 | 69 | 221 | 3.0 | 7.0 | 0.00 | 0.00 | 0.00 | 46 | 1009.2 |
| 20260506043012 | 69 | 274 | 2.0 | 8.0 | 0.00 | 0.00 | 0.00 | 45 | 1009.1 |
| 20260506041516 | 68 | 230 | 3.0 | 7.0 | 0.00 | 0.00 | 0.00 | 45 | 1009.2 |
| 20260506040022 | 67 | 223 | 1.0 | 3.0 | 0.00 | 0.00 | 0.00 | 45 | 1009.2 |
| 20260506034503 | 69 | 198 | 0.0 | 5.0 | 0.00 | 0.00 | 0.00 | 43 | 1009.2 |
| 20260506033012 | 69 | 244 | 2.0 | 6.0 | 0.00 | 0.00 | 0.00 | 41 | 1009.2 |
| 20260506031527 | 69 | 141 | 1.0 | 6.0 | 0.00 | 0.00 | 0.00 | 42 | 1009.2 |
| 20260506030041 | 70 | 238 | 1.0 | 4.0 | 0.00 | 0.00 | 0.00 | 40 | 1009.2 |
| 20260506024529 | 70 | 207 | 1.0 | 4.0 | 0.00 | 0.00 | 0.00 | 39 | 1009.2 |
| 20260506023009 | 71 | 234 | 1.0 | 6.0 | 0.00 | 0.00 | 0.00 | 39 | 1009.2 |
| 20260506021510 | 71 | 242 | 3.0 | 10.0 | 0.00 | 0.00 | 0.00 | 38 | 1009.1 |